Regional Weather Roundup
Issued by NWS

Home | Current Version | Previous Version | Text Only | Print | Product List | Glossary Off
Versions: 1 2 3 4 5 6 7 8 9 10 11 12 13 14 15 16 17 18 19 20 21 22 23 24 25 26 27 28 29 30 31 32 33 34 35 36 37 38 39 40 41 42 43 44 45 46 47 48 49 50

000
ASUS45 KBOI 221010
RWRID

IDAHO REGIONAL WEATHER ROUNDUP
NATIONAL WEATHER SERVICE BOISE ID
400 AM MDT FRI MAY 22 2015

NOTE: "FAIR" INDICATES FEW OR NO CLOUDS BELOW 12000 FEET
WITH NO SIGNIFICANT WEATHER AND/OR OBSTRUCTIONS TO VISIBILITY

IDZ012-014-221100-
SOUTHWEST IDAHO


CITY           SKY/WX    TMP DP  RH WIND       PRES   REMARKS
BOISE          PTCLDY    54  47  77 SE7       29.87R
CALDWELL       PTCLDY    54  43  66 W3        29.86F
MOUNTAIN HOME  MOCLDY    50  43  76 NE2       29.86S
$$

IDZ016-017-221100-
SOUTHCENTRAL IDAHO


CITY           SKY/WX    TMP DP  RH WIND       PRES   REMARKS
BURLEY         CLOUDY    52  46  80 CALM      29.89R
JEROME         PTCLDY    53  44  71 W3        29.89S
TWIN FALLS     MOCLDY    52  43  71 S9        29.86F
$$

IDZ019>023-221100-
SOUTHEAST IDAHO


CITY           SKY/WX    TMP DP  RH WIND       PRES   REMARKS
IDAHO FALLS    CLOUDY    48  45  89 CALM      29.94F
POCATELLO      CLOUDY    50  46  86 E7        29.92F
REXBURG        CLOUDY    49  42  77 E3        29.95S
$$

IDZ006-010-011-018-031-032-221100-
CENTRAL IDAHO MOUNTAINS


CITY           SKY/WX    TMP DP  RH WIND       PRES   REMARKS
MCCALL         CLEAR     41  38  89 CALM      29.91F
HAILEY         MOCLDY    45  43  93 NW8       29.97S
STANLEY          N/A     42  39  89 SE3       30.00S
SALMON         PTCLDY    48  45  87 CALM      29.93S
CHALLIS        CLEAR     45  41  86 CALM      29.95S
$$

IDZ002-004-006-007-026-221100-
NORTHERN IDAHO


CITY           SKY/WX    TMP DP  RH WIND       PRES   REMARKS
LEWISTON       MOCLDY    60  53  77 S6        29.83S
LOWELL           N/A     52  49  89 CALM      29.91R
COEUR D`ALENE  PTCLDY    57  46  67 SE5       29.85S
MULLAN PASS    CLEAR     49  37  63 CALM      29.98S
$$



USA.gov is the U.S. government's official web portal to all federal, state and local government web resources and services.